ONEWEB-0062, 45163

Orbit data source: Space-Track

ONEWEB-0062, 45163 is a payload satellite owned by One Web (UK) in LEO that was launched on Thu, 06 Feb 2020 UTC via a SOYUZ-2-1B launch vehicle from the Tyuratam Missile And Space Complex (TTMTR). Payload-class satellites include a variety of spacecraft equipped with specific instruments for various scientific and technological missions. These include communications satellites like Starlink; space stations such as the ISS; scientific satellites like the Hubble; Earth observation satellites from companies like Planet Labs, Umbra, and HawkEye 360; GPS; miniature CubeSats for education and research; and military/defense satellites.

Loading next visibility...
Identifier
45163, 2020-008AJ
Orbit
LEO
Country
Flag of UKUK
Related business
Manufacturer
One Web
Mission
Operational Commercial Communications
Bus & Motor
ARROW, Unknown motor
Mass
148 kg wet, ~140 kg dry
Launch date (UTC)
2020-02-06 (6 years ago)
Launch vehicle
SOYUZ-2-1B
Launch site
Tyuratam Missile And Space Complex (TTMTR)
Object type
Payload
Rocket body
Debris
Shape & HBR
Trap Box + 2 Pan, 6.7 m
Radar Cross Section
3.464 m², Large (>1 m²)

Expand to show TLE details & history
Last TLE update: 20 hours ago

TLE from 20 hours ago
0 ONEWEB-0062
1 45163U 20008AJ  25300.95341946 -.00000423  00000-0 -12469-2 0  9995
2 45163  87.8766  82.5581 0001965 100.0980 260.0369 13.10368756277777
Epoch: 2025-10-27T22:52Z
TLE epoch observation values (Epoch: 2025-10-27T22:52:55.441Z)
Latitude
-0.00002°
Longitude
62.77923°
Altitude
1,224.879 km
Speed
7.242 km/s
True Right ascension
05h 30m 13s
True Declination
0° 00' 00"
Sunlit
Object was in full shadow at epoch
Visualization orbit readout
Latitude
Unknown
Longitude
Unknown
Altitude
Unknown
Speed
Unknown
Apparent Right ascension
Unknown
Apparent Declination
Unknown
Sunlit
N/A
Visualization observer readout
Local Sidereal Time
13:55:00
Azimuth
Unknown
Elevation
Unknown
Doppler factor
Unknown
Orbital elements
Apogee altitude
1,220.346 km
Perigee altitude
1,217.36 km
Semi-major axis
7,596.99 km
Eccentricity
0.0002
Inclination
87.8766°
RAAN
82.5581°
Arg. of periapsis
100.098°
True anomaly
260.01472°
Mean anomaly
260.0369°
Eccentric anomaly
260.02581°
Mean motion
3.27779 °/min
Orbital period
109.83 mins
BSTAR
-0.0012469
Loading maneuver chart data...
Computing Atmospheric mass density...
Loading historical data...
Loading historical data...
Loading historical data...
Loading historical data...
Loading historical data...
Loading historical data...
Loading historical data...

Documentation

Showing up to 5 results
|